STARLINK-33583, 63503

Orbit data source: Space-Track

STARLINK-33583, 63503 is a payload satellite owned by SpaceX/Seattle (US) in LEO that was launched on Mon, 07 Apr 2025 UTC via an FALCON 9 launch vehicle from the Air Force Western Test Range (AFWTR). Payload-class satellites include a variety of spacecraft equipped with specific instruments for various scientific and technological missions. These include communications satellites like Starlink; space stations such as the ISS; scientific satellites like the Hubble; Earth observation satellites from companies like Planet Labs, Umbra, and HawkEye 360; GPS; miniature CubeSats for education and research; and military/defense satellites.

Loading next visibility...
Identifier
63503, 2025-071L
Orbit
LEO
Last TLE update
13 hours ago
Origin
Manufacturer
SpaceX/Seattle
Mission
Operational Commercial Communications
Bus & Motor
STARLINK V2MO, Unknown motor
Mass
575 kg wet, ~530 kg dry
Launch date (UTC)
2025-04-07 (3 months ago)
Launch vehicle
FALCON 9
Launch site
Air Force Western Test Range (AFWTR)
Object type
Payload
Rocket body
Debris
Shape & HBR
Box + 1 Pan, 29 m
Radar Cross Section
41.120 m², Large (>1 m²)

Expand to show TLE details & history

TLE from 13 hours ago
0 STARLINK-33583
1 63503U 25071L   25188.76901280  .00015791  00000-0  54403-3 0  9991
2 63503  53.1576 200.2375 0001371  65.6683 294.4461 15.30206617 15244
Epoch: 2025-07-07T18:27Z
TLE epoch observation values (Epoch: 2025-07-07T18:27:22.705Z)
Latitude
-0.00003°
Longitude
-2.58073°
Altitude
475.706 km
Speed
7.629 km/s
True Right ascension
13h 20m 56s
True Declination
0° 00' 00"
Sunlit
Object was in daylight at epoch
Visualization orbit readout
Latitude
52.84244°
Longitude
95.44109°
Altitude
480.791 km
Speed
7.632 km/s
Apparent Right ascension
05h 38m 34s
Apparent Declination
57° 38' 50"
Sunlit
Object is in daylight
Visualization observer readout
Local Sidereal Time
19:30:29
Azimuth
14.786° NNE
Elevation
10.346°
Doppler factor
1
Orbital elements
Apogee altitude
476.392 km
Perigee altitude
474.513 km
Semi-major axis
6,853.589 km
Eccentricity
0.00014
Inclination
53.1576°
RAAN
200.2375°
Arg. of periapsis
65.6683°
True anomaly
Unknown
Mean anomaly
294.4461°
Eccentric anomaly
Unknown
Mean motion
3.82531 °/min
Orbital period
94.11 mins
BSTAR
0.00054403
Loading maneuver chart data...
Loading SW <> Apogee altitude chart data...
Loading historical data...
Loading historical data...
Loading historical data...
Loading historical data...
Loading historical data...
Loading historical data...
Loading historical data...

STARLINK-33583 Visibility forecast

Observer location: undefined°, undefined°

Span
Click to sort rows by Start time (UTC) header in descending order
Start Az.
Max El. time (UTC)
Max El. Az.
Max El.
End time (UTC)
End Az.
4 mins2025-07-08 09:01:56.004Z354.155° N2025-07-08 09:02:56.004Z15.813° NNE19.734°2025-07-08 09:05:56.004Z74.179° E
6 mins2025-07-08 10:38:56.004Z302.195° NW2025-07-08 10:41:56.004Z180.334° SSW40.645°2025-07-08 10:44:56.004Z140.986° SSE
5 mins2025-07-09 03:34:56.004Z245.68° WSW2025-07-09 03:36:56.004Z321.605° NNW42.191°2025-07-09 03:39:56.004Z43.334° NE
|